This is the latest recevied weather packets stored in our database for station/object KD4UFD. If no packets are shown the sender has not sent any weather packets the latest 10 day(s).
| Time | Temp. | Humidity | Pressure | Rain* | Wind** | Luminosity | Snow |
|---|---|---|---|---|---|---|---|
| 1778162626 | 12.78° C | 94% | 1013.2 hPa | 0 mm | - | 58 W/m² | - |
| 1778162324 | 12.22° C | 93% | 1013.1 hPa | 0 mm | - | 46 W/m² | - |
| 1778162020 | 12.22° C | 93% | 1013.2 hPa | 0 mm | - | 64 W/m² | - |
| 1778161718 | 12.78° C | 94% | 1013.2 hPa | 0 mm | - | 64 W/m² | - |
| 1778161414 | 12.78° C | 94% | 1013 hPa | 0 mm | - | 50 W/m² | - |
| 1778161110 | 12.78° C | 94% | 1013 hPa | 0 mm | - | 67 W/m² | - |
| 1778160805 | 12.78° C | 94% | 1012.9 hPa | 0 mm | - | 88 W/m² | - |
| 1778160505 | 12.78° C | 94% | 1012.9 hPa | 0 mm | - | 83 W/m² | - |
| 1778160200 | 12.78° C | 94% | 1012.8 hPa | 0 mm | - | 79 W/m² | - |
| 1778159898 | 12.78° C | 95% | 1012.9 hPa | 0 mm | - | 72 W/m² | - |
| 1778159594 | 12.22° C | 95% | 1012.9 hPa | 0 mm | - | 71 W/m² | - |
| 1778159291 | 12.22° C | 95% | 1012.9 hPa | 0 mm | - | 74 W/m² | - |
| 1778158989 | 12.78° C | 95% | 1013 hPa | 0 mm | - | 55 W/m² | - |
| 1778158687 | 12.22° C | 95% | 1013.1 hPa | 0 mm | - | 76 W/m² | - |
| 1778158384 | 12.22° C | 96% | 1013 hPa | 0 mm | - | 65 W/m² | - |
| 1778158081 | 12.22° C | 96% | 1012.9 hPa | 0 mm | - | 64 W/m² | - |
| 1778157778 | 12.22° C | 96% | 1012.9 hPa | 0 mm | - | 60 W/m² | - |
| 1778157476 | 12.22° C | 96% | 1012.9 hPa | 0 mm | - | 64 W/m² | - |
| 1778157173 | 12.22° C | 96% | 1012.8 hPa | 0 mm | - | 59 W/m² | - |
| 1778156869 | 12.22° C | 96% | 1012.9 hPa | 0 mm | - | 30 W/m² | - |
| 1778156564 | 12.22° C | 96% | 1012.7 hPa | 0 mm | - | 22 W/m² | - |
| 1778156261 | 12.22° C | 96% | 1012.8 hPa | 0 mm | - | 50 W/m² | - |
| 1778155956 | 12.22° C | 96% | 1013 hPa | 0 mm | - | 63 W/m² | - |
| 1778155653 | 12.22° C | 96% | 1012.6 hPa | 1.27 mm | - | 31 W/m² | - |
| 1778155350 | 12.22° C | 96% | 1012.5 hPa | 1.27 mm | - | 22 W/m² | - |
* Rain latest hour (hover to see other rain measurements)
** Current wind speed in m/s (hover to see current wind gust speed)